Tracking 20625 objects as of 9-Apr-2020
HD Live streaming from Space Station
objects crossing your sky now

ARIANE 42L R/B

Track ARIANE 42L R/B now!
10-day predictions


NORAD ID: 25586
Int'l Code: 1998-075B
Perigee: 163.9 km
Apogee: 14,932.4 km
Inclination: 7.6 °
Period: 272.4 minutes
Semi major axis: 13919 km
RCS: 21.3079 m2 (large)
Launch date: December 22, 1998
Source: France (FR)
Launch site: FRENCH GUIANA (FRGUI)

Note: This is a ROCKET BODY
aabbcc
Your satellite tracking list
Your tracking list is empty




NASA's NSSDC Master Catalog

Two Line Element Set (TLE):
1 25586U 98075B   20099.12630031  .00272018  10925-6  12625-2 0  9992
2 25586   7.5688 340.2565 5305101 258.9801  39.5888  5.28669277277981
Source of the keplerian elements: AFSPC